sat.trackr.live / text

‹ back to catalog

STARLINK-34964

NORAD 65239 · 2025-179E

PAYLOAD ACTIVE UNKNOWN

§ Identity

Operator
Country
US
Launch date
2025-08-18
Launch site
AFWTR
Launch vehicle
Mass (kg)
RCS (m²)

Purposes: comms

External: N2YO · Heavens-Above · Gunter

§ Orbital elements

Epoch: 2026-09-20T06:59:27.301344Z

Period
93.91 min
Inclination
97.2860°
Eccentricity
0.0003142
Mean motion
15.33450236 rev/d
Perigee alt
463.4 km
Apogee alt
467.7 km
Semi-major
6,843.7 km
B*
4.5818e-4
RAAN
302.6547°
Arg perigee
137.3916°
Mean anomaly
222.7571°
Rev number
6,128

§ Raw data

STARLINK-349641 65239U 25179E   26263.29128821  .00014750  00000+0  45818-3 0  99962 65239  97.2860 302.6547 0003142 137.3916 222.7571 15.33450236 61281

JSON: /api/v1/satellites/65239 · /tle

For live sub-satellite position, see the globe view (requires WebGL).

§ Visibility from observer

Set your observer location to see the next 7 days of passes ≥ 10°. The values pass through the URL so the page stays shareable.

No JS? Fill the form by hand. The geolocation button needs JavaScript.